Home   Weather   Joshua Tree   Past weeks
Flag for USA

Past Weather in Joshua Tree, California, USA — Yesterday and Last 2 Weeks

Now
55 °F

Clear.


Feels Like: 54 °F
Forecast: 78 / 52 °F
Wind: 6 mph from Northwest

Location: Twentynine Palms - Marine Corps Combat Center

Current Time: Oct 14, 2019 at 4:02:52 am

Latest Report: Oct 14, 2019 at 2:56 am


Visibility: 9 mi

Pressure: 29.83 "Hg (27.00 "Hg at 834m altitude)

Humidity: 39%

Dew Point: 30 °F

Location of Joshua TreeLocation

Past Weather in Joshua Tree — Graph

°F

Joshua Tree Temperature Yesterday

Maximum temperature yesterday: 84 °F (at 2:56 pm)
Minimum temperature yesterday: 48 °F (at 5:56 am)
Average temperature yesterday: 65 °F

High & Low Weather Summary for the Past Weeks

 TemperatureHumidityPressure
High94 °F (Oct 8, 3:56 pm)55% (Sep 29, 4:56 am)30.18 "Hg (Sep 29, 4:56 am)
Low48 °F (Oct 12, 5:56 am)3% (Oct 12, 11:56 am)29.17 "Hg (Oct 1, 6:56 pm)
Average68 °F16%29.88 "Hg
* Reported Sep 29 2:56 am — Oct 14 2:56 am, Joshua Tree. Weather by CustomWeather, © 2019

Note: Actual official high and low records may vary slightly from our data, if they occured in-between our weather recording intervals... More about our weather records

Advertising

Joshua Tree Weather History for the Previous 24 Hours

Scroll right to see more
 ConditionsComfort  
Time TempWeatherWind HumidityBarometerVisibility
2:56 am
Mon, Oct 14
55 °FClear.6 mph39%29.83 "Hg9 mi
1:56 am58 °FClear.7 mph31%29.84 "Hg10 mi
12:56 am59 °FClear.7 mph23%29.84 "Hg10 mi
11:56 pm
Sun, Oct 13
62 °FClear.No wind20%29.83 "Hg10 mi
10:56 pm62 °FClear.3 mph19%29.84 "Hg10 mi
9:56 pm64 °FClear.6 mph17%29.84 "Hg10 mi
8:56 pm68 °FClear.6 mph15%29.83 "Hg9 mi
7:56 pm69 °FClear.3 mph14%29.82 "Hg10 mi
6:56 pm71 °FClear.12 mph12%29.81 "Hg10 mi
5:56 pm78 °FSunny.13 mph9%29.80 "Hg10 mi
4:56 pm81 °FSunny.15 mph7%29.79 "Hg10 mi
3:56 pm84 °FSunny.13 mph6%29.79 "Hg10 mi
2:56 pm84 °FSunny.10 mph6%29.80 "Hg10 mi
1:56 pm82 °FSunny.15 mph7%29.82 "Hg10 mi
12:56 pm81 °FSunny.10 mph6%29.85 "Hg10 mi
11:56 am79 °FSunny.13 mph6%29.88 "Hg10 mi
10:56 am72 °FSunny.No wind7%29.91 "Hg10 mi
9:56 am65 °FSunny.No wind9%29.26 "Hg10 mi
8:56 am57 °FSunny.5 mph13%29.93 "Hg7 mi
7:56 am51 °FSunny.7 mph17%29.92 "Hg7 mi
6:56 am48 °FSunny.6 mph20%29.90 "Hg10 mi
5:56 am48 °FClear.6 mph20%29.89 "Hg10 mi
4:56 am49 °FClear.5 mph19%29.88 "Hg10 mi
Weather by CustomWeather, © 2019

See weather overview